Location: Seasalter
(51.3333°N, 1.0167°E)
Time: 13:16:11
(UTC+00:00)

ATLAS 2AS CENTAUR R/B - Visible Passes

Search period start: 13 April 2024 00:00
Search period end: 23 April 2024 00:00
Orbit: 1007 x 1204 km, 63.7° (Epoch: 07 March)

Date Brightness Start Highest point End Pass type
(mag) Time Alt. Az. Time Alt. Az. Time Alt. Az.
13 Apr 4.0 03:43:11 10° S 03:49:56 39° ESE 03:56:27 10° NE visible
14 Apr 4.5 02:59:23 10° SSE 03:05:19 27° ESE 03:11:06 10° ENE visible
15 Apr 4.9 02:16:16 10° SE 02:20:50 18° ESE 02:25:18 10° ENE visible
15 Apr 3.2 04:03:17 10° SSW 04:10:38 68° SE 04:17:43 10° NE visible
16 Apr 5.2 01:35:12 10° ESE 01:36:29 10° ESE 01:37:46 10° E visible
16 Apr 3.6 03:18:48 10° SSW 03:25:51 48° ESE 03:32:38 10° NE visible
17 Apr 4.1 02:35:26 13° S 02:41:09 33° ESE 02:47:24 10° NE visible
18 Apr 4.5 01:52:08 13° SSE 01:56:36 23° ESE 02:01:55 10° ENE visible
18 Apr 2.9 03:39:34 11° SW 03:46:39 81° SE 03:53:46 10° NE visible
19 Apr 4.9 01:08:46 10° SE 01:12:11 14° ESE 01:15:45 10° ENE visible
19 Apr 3.2 02:56:11 18° SSW 03:01:47 59° SE 03:08:45 10° NE visible
20 Apr 3.7 02:12:46 22° S 02:17:03 41° ESE 02:23:38 10° NE visible
20 Apr 3.0 04:00:25 10° WSW 04:07:46 66° NW 04:14:49 10° NE visible
21 Apr 4.1 01:29:17 21° SSE 01:32:25 28° ESE 01:38:19 10° ENE visible
21 Apr 2.9 03:16:42 17° SW 03:22:43 86° NW 03:29:51 10° NE visible
22 Apr 4.5 00:45:45 17° SE 00:47:55 19° ESE 00:52:37 10° ENE visible
22 Apr 2.9 02:33:10 25° SSW 02:37:47 71° SE 02:44:52 10° NE visible
